Vorticity
6 9 19 19 14 12 3 -3 -4 4 16 16 11 12 9 2 2 8 6 5 4 1 4 4 2 13 17 12 11 11 8 8 11 10 6 5 5 5 7 7 7 8 7 5 4 4 5 6 7 7 8 10 8 7 7 7 7 8 8 7 7 6 5 5 5 5 4 5 5 5 6 7 6 6 5 5 5 4 4 5 6 5 5 5 5 4
5 6 11 19 18 8 6 2 -10 -4 10 14 13 14 17 10 3 7 6 6 7 2 4 2 -1 8 12 9 10 12 10 10 13 12 9 6 6 6 4 5 7 7 7 6 5 5 5 6 6 6 8 10 10 8 7 7 7 7 8 7 7 7 7 6 6 6 5 5 5 4 6 8 8 8 7 7 7 7 6 5 6 6 6 5 5 5
5 6 5 12 17 4 3 12 4 -6 -4 10 12 1 9 11 3 4 3 7 8 2 5 4 -0 5 1 -4 10 21 13 8 12 15 14 8 5 6 3 5 8 6 7 6 6 6 5 5 6 7 7 8 10 8 7 7 6 7 8 8 8 7 7 8 7 8 7 7 7 5 5 8 10 9 8 7 7 8 7 6 6 7 6 6 6 5
-2 3 3 2 13 15 12 18 19 5 -3 13 12 -5 4 6 -0 3 0 4 8 5 9 8 2 8 9 5 10 19 15 8 9 10 15 14 6 4 2 3 7 7 8 6 4 6 5 4 5 7 6 7 9 8 8 8 7 7 8 8 8 8 8 8 8 8 8 7 8 7 6 8 10 12 11 9 8 8 8 7 6 7 6 7 7 6
3 9 5 -5 1 11 17 16 10 8 15 24 14 3 15 12 5 10 3 3 10 9 11 11 6 5 9 11 2 -2 5 11 11 4 7 15 14 10 3 1 6 7 6 7 6 6 6 5 4 6 7 6 8 8 8 8 8 7 8 8 7 8 8 8 9 9 8 8 9 9 9 9 11 13 12 10 9 8 8 7 6 7 6 5 6 5
7 7 3 7 11 7 9 10 2 6 20 24 10 3 11 8 5 9 6 9 11 4 5 10 13 10 7 15 11 -2 2 12 14 8 3 7 14 18 13 5 4 6 5 6 6 6 7 6 4 5 7 7 7 8 8 8 9 8 8 9 8 8 8 8 10 9 8 9 9 9 10 12 12 12 12 11 12 9 8 8 6 7 6 6 6 5
2 -3 -8 -1 12 16 15 13 7 4 9 11 -2 -4 9 4 0 11 10 12 17 6 2 9 13 11 6 11 18 11 9 12 13 14 9 3 6 17 21 10 0 3 7 7 5 5 6 6 5 5 7 9 7 7 7 7 8 8 7 8 8 9 9 8 9 9 9 8 9 9 10 12 13 11 10 10 11 10 9 8 8 9 7 7 7 6
5 5 7 2 5 15 15 13 12 4 9 18 -4 -8 16 2 -13 14 17 6 17 14 2 5 5 2 -0 1 7 9 10 13 12 14 13 5 3 10 22 18 3 -0 5 9 9 6 6 6 5 6 7 9 8 7 7 7 7 8 8 7 7 8 9 8 8 8 8 7 8 9 9 11 12 11 11 10 11 11 10 10 10 11 9 8 9 8
15 9 15 19 18 23 18 12 19 15 16 21 -5 -10 22 11 -22 -3 15 2 7 15 8 9 6 -3 -7 -6 2 8 9 10 10 12 12 8 5 5 16 22 11 1 2 8 11 8 7 6 4 5 8 8 9 8 7 7 7 8 7 7 7 7 8 9 8 7 6 6 8 9 9 10 10 10 11 12 12 11 11 12 11 12 11 10 11 10
22 13 13 16 14 19 13 -2 6 18 16 13 1 -8 7 17 -5 -17 -0 4 -1 5 8 12 18 10 -5 -11 -4 5 8 8 7 9 10 9 9 6 8 18 16 7 1 2 8 10 7 6 4 5 8 9 8 9 8 7 7 7 8 7 7 7 8 8 7 6 6 6 8 9 9 9 9 10 10 11 12 11 10 11 11 12 12 11 12 11
26 21 14 16 13 16 14 -6 -5 9 8 8 14 5 -3 15 21 -3 -3 10 2 2 5 5 20 27 14 -2 -6 0 4 5 7 8 8 7 10 11 7 11 16 13 5 -3 2 10 10 7 6 5 8 9 8 9 9 7 7 7 7 7 8 8 8 8 7 7 7 7 7 7 7 8 8 8 9 9 10 10 10 9 10 12 11 11 12 11
26 22 5 11 8 11 25 13 5 10 8 13 23 23 14 15 22 13 10 21 19 21 26 22 23 29 25 12 2 3 3 3 6 6 7 6 6 11 11 7 8 13 13 4 -0 7 11 9 7 6 7 8 9 9 9 8 8 7 6 7 8 8 9 9 8 7 7 7 6 6 5 6 7 7 7 8 8 9 9 10 10 11 10 10 10 10
23 11 -9 2 -5 -4 27 30 14 10 11 15 13 16 21 15 17 17 9 12 17 18 17 18 23 23 21 17 6 3 4 5 7 6 6 7 4 9 14 11 5 5 11 11 6 5 9 9 8 7 5 6 8 9 9 10 8 7 6 5 6 8 9 9 8 7 7 7 6 5 5 5 6 6 6 6 6 7 7 8 8 9 9 8 9 10
16 -1 -8 5 1 -8 13 27 14 4 11 13 3 4 11 9 22 27 8 1 8 9 2 1 12 12 13 20 11 5 8 5 6 9 7 7 5 6 12 14 9 4 5 11 11 5 5 8 9 8 6 5 8 8 9 10 8 7 6 4 5 7 9 10 9 7 7 7 7 6 6 6 6 6 6 5 6 6 6 6 6 6 6 6 7 8
-4 1 10 2 5 -4 -7 11 13 3 8 5 -2 11 10 -7 4 16 6 1 1 3 5 4 9 8 10 21 16 9 12 7 6 11 10 13 14 9 11 13 9 7 8 11 12 5 3 7 8 9 8 6 6 6 8 10 9 7 6 5 5 5 8 10 9 8 8 7 8 7 6 6 6 6 5 6 6 6 6 6 6 5 5 6 6 6
-11 1 11 -10 1 14 7 16 24 20 15 -3 -10 15 20 -1 4 12 2 1 1 -2 1 4 9 10 11 19 16 9 9 7 7 11 13 17 16 11 12 12 11 15 19 18 12 3 0 5 6 7 9 8 7 6 6 7 9 9 7 5 5 4 6 8 8 8 8 8 7 7 7 7 6 6 6 6 6 6 6 6 5 5 5 6 6 6
-9 -2 17 8 7 14 10 6 11 20 23 8 -7 1 6 -4 5 21 13 5 5 -1 -5 4 14 14 14 21 20 12 9 6 5 9 14 14 8 10 14 13 13 18 25 24 12 -1 -1 5 5 5 7 7 8 7 5 6 8 9 8 6 5 4 4 6 7 7 8 8 8 7 8 7 7 7 6 6 6 6 6 6 6 6 6 7 7 8
-12 -4 18 18 8 3 -1 3 16 22 22 21 8 -3 -2 -6 -1 20 25 16 14 9 -6 -4 9 7 7 16 16 13 14 10 5 9 15 10 4 7 8 8 14 17 19 19 10 -1 -1 3 3 5 7 7 9 8 6 7 8 8 9 7 5 5 4 4 5 6 6 6 8 8 8 8 8 8 7 7 7 7 7 7 8 8 7 8 7 7
-5 6 4 -1 17 23 5 10 27 19 14 25 23 15 11 6 6 13 17 14 19 24 5 -10 -0 0 -2 9 12 11 15 11 8 12 12 7 6 9 6 3 13 19 13 7 6 5 3 2 1 3 6 6 8 9 8 7 8 7 8 8 7 5 4 4 5 6 6 5 6 6 6 7 7 7 6 6 6 7 7 6 6 7 7 8 7 7
7 23 6 -10 10 20 1 2 11 3 13 22 16 23 25 14 13 11 8 8 13 28 20 -1 3 4 1 11 13 9 12 11 11 15 17 12 4 6 9 5 9 16 14 8 7 8 8 5 1 2 5 4 5 9 10 9 7 7 7 7 8 7 5 5 5 4 6 5 5 4 5 5 5 6 6 6 5 6 6 6 5 6 6 6 7 7
8 17 16 1 -5 4 2 2 4 1 13 11 -8 5 16 10 15 13 9 10 11 20 18 3 6 7 4 11 11 8 10 7 6 10 17 21 12 5 7 8 10 12 14 19 17 11 10 7 2 3 3 2 5 7 9 12 9 6 8 6 6 7 6 6 4 4 5 5 5 4 4 4 4 5 5 5 6 5 5 6 5 6 6 6 7 7
8 5 28 25 -3 2 5 0 12 10 7 14 11 11 9 5 14 19 14 9 8 15 15 5 7 8 5 7 10 11 11 7 7 5 7 13 15 14 10 7 9 8 10 20 23 16 11 6 3 5 4 2 5 5 6 11 10 6 8 7 5 6 7 6 6 4 4 5 6 4 3 4 4 5 5 4 5 5 5 6 6 6 6 6 6 7
16 3 22 23 -5 -2 2 -4 11 12 -1 8 17 15 8 3 9 18 19 12 8 15 18 11 12 13 8 4 6 10 8 6 9 9 7 4 3 12 19 15 12 9 9 15 19 16 13 8 2 1 4 2 3 4 5 8 9 8 7 6 5 5 6 7 6 5 5 5 5 5 4 5 4 4 5 4 4 4 4 5 5 5 5 5 5 5
23 8 10 19 14 14 12 -1 -10 -11 -5 6 13 15 12 7 6 9 14 15 9 11 13 13 14 15 13 7 3 7 11 13 12 10 12 9 0 3 17 23 20 16 13 12 12 12 10 10 7 1 3 5 4 5 5 5 8 9 7 6 6 5 5 6 5 5 7 6 5 6 5 5 5 5 5 5 4 4 4 4 4 4 4 4 4 4
8 6 3 17 29 28 25 12 -8 -10 4 9 9 11 10 10 9 7 10 13 11 10 10 11 11 10 12 11 4 6 15 17 13 12 14 11 7 3 4 12 16 17 20 17 13 15 13 11 9 4 3 6 7 7 4 4 8 7 6 7 8 7 5 6 6 6 6 6 5 6 5 5 5 4 4 5 4 4 4 4 4 4 5 5 5 5
5 2 4 10 19 26 24 11 -1 -0 1 -8 -11 -2 7 12 12 10 13 14 13 12 10 10 11 8 8 9 7 9 15 13 6 10 17 14 12 8 2 2 4 9 24 30 22 14 10 8 9 11 11 5 2 7 7 4 5 6 6 8 9 9 7 6 7 6 6 7 7 6 6 6 5 5 5 4 4 5 5 5 5 6 6 6 7 6
8 1 8 9 10 18 15 4 4 8 1 -8 -2 12 15 10 7 6 9 14 16 16 14 11 10 9 7 10 11 5 11 24 17 5 8 14 16 16 9 5 3 -1 9 28 34 25 15 10 8 13 21 14 1 3 10 8 4 4 5 7 8 7 7 7 7 7 6 6 6 6 6 7 6 6 5 5 7 7 7 7 7 7 6 6 7 7
13 9 10 9 9 11 8 7 11 13 10 5 10 21 16 6 7 3 0 9 13 12 15 14 11 10 6 11 15 1 -1 20 23 8 2 5 8 13 15 15 13 4 -4 1 13 20 19 18 15 10 17 24 13 2 4 10 10 5 3 6 8 6 6 7 6 7 6 5 5 5 5 6 6 6 7 7 8 9 9 9 8 7 7 7 6 6
11 12 9 9 10 8 11 12 2 -2 8 5 1 11 10 6 17 15 4 9 14 11 11 9 8 8 3 5 12 8 3 7 9 8 9 7 4 6 14 20 18 12 7 -0 -5 -5 -5 7 23 20 10 16 21 12 4 4 8 8 6 6 8 7 6 6 5 6 6 4 4 4 3 4 4 4 6 6 6 7 7 6 7 6 4 5 6 7
16 15 9 8 6 6 14 17 2 -1 12 10 5 9 -1 -6 15 23 13 11 14 15 16 11 7 8 9 9 9 12 17 13 4 2 9 16 16 10 11 20 20 13 13 16 12 8 1 4 22 30 15 7 13 17 13 7 2 3 8 12 11 10 7 6 6 6 6 6 5 4 3 4 5 6 7 7 7 7 6 5 6 7 7 6 7 6
24 20 10 12 17 15 15 17 13 11 13 10 12 15 2 -2 16 25 20 16 10 7 11 13 11 11 15 17 12 10 18 19 10 3 4 9 15 17 17 18 19 14 12 14 14 14 15 11 11 19 18 10 9 11 15 16 6 -0 7 12 9 8 9 10 8 5 7 9 7 6 6 6 8 9 8 9 8 5 7 9 8 7 7 7 6 6
15 13 8 10 15 18 22 22 12 2 4 5 5 9 7 6 9 5 5 16 18 13 10 9 8 9 10 12 11 8 11 15 12 7 6 4 3 10 11 4 5 8 8 9 10 10 14 12 8 9 11 12 14 12 15 21 13 3 7 10 8 7 9 11 11 9 9 9 7 7 9 8 7 7 6 8 8 6 6 8 7 5 4 5 6 6
11 14 13 7 4 14 30 27 2 -9 4 12 8 12 18 14 0 -17 -19 -2 11 16 17 12 9 8 7 9 10 8 8 11 12 11 10 9 6 5 3 2 7 14 15 10 6 9 14 12 11 11 11 16 17 10 14 25 17 4 4 8 8 7 4 4 9 11 9 9 9 9 9 8 3 3 6 6 5 6 6 5 4 4 4 4 5 6
13 7 9 15 13 12 16 16 9 6 10 7 1 3 11 17 11 -4 -8 -4 -2 5 12 12 10 8 8 13 15 11 8 4 9 15 11 8 13 12 10 12 7 7 19 19 6 5 13 12 5 3 9 22 21 8 11 24 20 7 2 2 2 4 6 2 -2 2 5 7 8 5 6 8 0 -5 3 8 6 7 7 4 4 5 5 4 3 6
8 -6 2 19 20 9 6 16 26 25 14 7 8 6 4 12 18 12 11 11 6 6 9 10 14 11 9 14 14 12 11 3 2 12 9 2 1 -3 5 22 17 2 10 22 16 9 11 13 7 -0 1 13 17 12 9 13 15 12 6 1 -1 5 12 4 -8 0 9 4 2 4 7 13 6 -6 -3 4 5 7 7 4 6 7 7 6 4 6
0 -6 2 12 11 6 10 19 20 17 11 4 8 15 14 16 20 15 12 10 7 9 10 9 14 15 12 14 12 12 15 9 4 10 11 6 -1 -11 -8 13 26 14 3 12 20 13 8 13 13 4 -2 2 11 17 16 11 11 16 18 12 3 4 13 8 -4 2 8 -4 -9 2 12 18 13 -0 -0 5 2 3 6 4 5 8 7 6 6 6
9 4 5 10 10 8 16 23 17 14 14 4 -2 4 7 10 16 14 11 11 9 11 12 10 11 14 15 17 16 15 15 13 10 11 11 8 8 5 -4 -2 19 28 17 14 16 11 10 14 14 10 3 -1 1 9 23 28 16 10 23 26 11 -1 4 10 2 1 9 -1 -13 -1 15 21 15 -0 -2 6 4 1 4 3 4 7 6 5 6 6
0 3 9 13 11 7 13 22 18 13 13 9 4 3 2 4 7 3 3 10 10 6 9 12 13 14 15 15 16 16 14 13 13 11 11 9 9 12 8 -1 3 13 21 26 17 9 12 9 13 22 11 3 7 -1 7 34 31 13 18 29 22 6 1 10 10 5 11 6 -4 8 16 10 9 4 -2 5 6 1 5 5 4 6 6 5 7 6
4 4 10 11 8 8 13 16 14 12 10 9 9 8 6 9 10 6 7 11 10 6 6 8 8 11 14 15 18 20 17 16 15 11 10 8 6 11 16 8 -7 -10 13 32 17 5 12 9 15 24 4 10 43 22 -10 12 33 24 18 20 23 15 6 14 16 5 8 10 5 13 11 -2 4 10 3 5 9 5 7 6 4 8 7 3 4 4
15 0 -1 3 5 12 21 21 19 16 9 7 10 8 4 5 7 7 7 5 5 7 7 7 8 10 13 15 18 23 22 17 15 15 14 9 6 10 12 13 13 10 20 29 14 5 11 9 19 28 -2 -10 23 14 -16 1 29 37 32 20 17 15 7 11 10 -3 10 25 15 10 13 12 17 12 0 2 7 7 8 6 5 9 6 2 4 5
10 -2 -2 4 4 6 7 8 18 21 10 5 8 8 6 8 5 3 3 3 6 7 7 9 11 11 13 16 18 22 23 20 16 14 16 15 13 13 8 10 27 29 19 17 15 13 14 9 18 33 13 -14 -9 -4 -6 6 21 39 49 37 25 18 12 21 20 3 7 16 5 -2 6 13 15 8 -1 2 6 7 7 6 10 15 10 5 6 5
5 -2 -0 7 7 3 -2 3 15 17 6 5 10 9 7 6 0 -1 2 4 6 7 7 9 8 7 11 16 19 21 21 22 19 15 16 17 14 14 8 2 14 22 13 13 17 15 14 13 15 23 17 2 1 10 14 10 4 16 38 46 39 26 15 19 21 10 5 3 -3 -0 4 5 12 14 6 2 5 6 3 1 5 14 17 15 10 8
10 3 4 7 4 1 6 15 16 8 1 6 10 9 8 8 6 9 13 13 10 8 8 6 4 6 10 11 16 22 21 19 19 17 17 18 15 14 9 -0 5 14 8 8 15 14 13 16 19 23 23 14 9 10 14 12 1 -3 16 39 44 32 20 13 6 4 8 6 4 10 8 -0 5 14 10 7 7 2 -2 0 1 4 11 17 15 4
14 7 5 7 5 2 4 6 6 6 6 9 12 15 17 14 10 9 11 12 9 5 5 4 2 7 13 12 15 22 20 15 16 18 21 23 20 16 9 3 10 16 6 1 10 18 19 19 19 25 29 23 16 11 11 13 7 3 18 35 34 26 24 23 19 19 18 7 2 12 15 4 -1 3 7 12 11 3 2 9 12 12 12 12 16 8
7 3 1 3 5 4 3 3 7 10 7 6 12 19 20 16 11 7 6 5 2 0 4 6 5 7 12 13 12 16 18 16 14 15 20 24 23 20 15 12 16 18 11 5 8 15 16 8 3 10 15 11 10 11 11 14 12 10 20 31 30 28 28 25 23 24 21 12 7 12 16 11 5 4 4 6 9 6 4 6 8 12 13 9 12 17
5 5 5 3 2 3 5 6 7 5 2 1 2 3 7 12 12 11 11 10 7 6 7 8 7 8 9 11 11 12 14 16 16 14 14 15 16 18 17 19 21 17 10 8 7 8 8 5 5 13 12 5 11 18 19 22 19 11 13 22 22 20 19 15 9 4 3 7 12 12 9 8 7 6 5 4 5 4 6 8 7 5 7 9 13 23
13 17 19 15 11 11 11 8 4 2 4 6 5 5 7 9 7 6 9 10 7 6 7 8 9 8 8 11 12 10 10 13 16 16 13 11 13 12 9 13 21 16 7 8 6 2 5 8 8 9 6 3 8 15 18 21 18 10 16 30 29 19 14 12 10 4 -0 5 14 17 16 15 14 14 13 11 10 8 7 9 8 5 6 7 6 8
6 9 13 12 9 9 10 9 6 5 4 3 5 9 10 9 8 6 7 7 4 2 4 7 8 7 8 10 12 11 11 11 13 16 16 12 12 14 11 12 17 14 8 8 7 5 9 10 2 2 9 10 8 9 15 19 17 12 17 27 33 37 39 36 35 36 36 36 39 39 37 35 33 33 32 31 30 28 22 14 11 14 17 14 9 6
8 5 3 2 3 5 8 8 6 7 9 8 7 9 9 9 9 9 9 10 9 7 7 7 8 11 11 11 12 12 12 11 10 14 18 15 11 13 14 11 10 12 10 8 7 7 9 8 2 -1 4 12 16 14 11 10 12 13 8 0 1 14 28 35 38 37 32 29 30 31 31 33 32 31 33 35 36 37 35 31 29 30 29 24 19 17
14 13 10 11 12 9 10 12 10 8 9 10 10 11 11 11 10 11 14 15 14 13 11 7 9 13 14 13 12 12 11 11 10 10 14 17 14 12 13 10 8 12 13 7 5 7 4 5 8 1 -2 12 23 17 7 5 8 8 4 -1 1 4 5 9 11 6 1 5 9 10 11 15 17 16 15 16 16 17 20 21 21 21 22 20 17 14
5 8 10 11 11 8 8 9 7 6 6 7 8 9 9 11 13 13 14 15 16 16 14 9 7 9 12 12 12 11 10 11 12 11 11 15 15 12 11 8 4 4 6 3 2 5 7 10 12 5 2 7 4 -6 -3 6 8 6 6 10 17 16 7 3 2 -2 -1 8 12 10 9 10 11 12 11 9 10 10 10 10 9 8 9 10 9 7
Height
5872 5873 5874 5874 5874 5875 5876 5878 5881 5882 5882 5883 5884 5885 5885 5886 5888 5888 5888 5889 5890 5892 5893 5894 5893 5893 5895 5896 5896 5896 5897 5898 5898 5899 5900 5901 5902 5903 5905 5907 5907 5908 5908 5908 5908 5909 5909 5909 5909 5910 5911 5911 5911 5912 5912 5913 5913 5914 5914 5915 5916 5916 5917 5918 5918 5918 5919 5919 5920 5921 5922 5924 5924 5925 5926 5927 5928 5929 5930 5930 5931 5932 5933 5934 5934 5935
5871 5872 5873 5874 5873 5874 5876 5879 5881 5882 5881 5882 5884 5884 5883 5884 5886 5886 5886 5887 5888 5890 5891 5892 5892 5892 5893 5895 5896 5896 5896 5897 5898 5898 5899 5900 5901 5902 5904 5906 5907 5908 5908 5909 5909 5909 5909 5910 5910 5910 5911 5912 5912 5912 5913 5913 5914 5914 5915 5915 5916 5917 5918 5918 5919 5919 5919 5920 5921 5921 5923 5924 5925 5926 5927 5928 5929 5930 5930 5931 5932 5933 5934 5934 5935 5936
5870 5871 5872 5873 5874 5874 5875 5877 5879 5879 5880 5880 5882 5882 5881 5883 5884 5885 5885 5886 5887 5888 5889 5890 5891 5891 5892 5894 5894 5894 5895 5897 5898 5898 5898 5899 5899 5901 5903 5905 5907 5908 5908 5909 5909 5909 5909 5910 5911 5911 5911 5912 5912 5912 5913 5914 5914 5915 5916 5916 5917 5918 5918 5919 5920 5920 5920 5921 5922 5922 5923 5925 5926 5927 5928 5928 5929 5930 5931 5931 5932 5933 5934 5935 5936 5936
5869 5870 5871 5872 5873 5873 5874 5875 5876 5878 5878 5879 5881 5881 5880 5882 5883 5884 5884 5885 5885 5887 5887 5888 5889 5890 5891 5893 5893 5893 5893 5895 5897 5898 5898 5898 5899 5900 5901 5904 5905 5907 5908 5909 5909 5909 5910 5910 5911 5911 5911 5912 5913 5913 5913 5914 5915 5915 5916 5917 5917 5918 5919 5919 5920 5921 5921 5921 5922 5922 5923 5924 5926 5927 5928 5929 5930 5930 5931 5932 5933 5934 5934 5935 5936 5937
5868 5869 5869 5870 5872 5872 5873 5874 5875 5877 5877 5878 5881 5881 5881 5882 5882 5883 5883 5884 5884 5885 5886 5886 5888 5890 5890 5891 5891 5892 5893 5894 5895 5897 5897 5898 5898 5899 5901 5903 5904 5906 5907 5908 5908 5909 5910 5910 5910 5911 5912 5912 5913 5913 5913 5914 5915 5915 5916 5917 5918 5919 5919 5920 5921 5921 5921 5922 5922 5923 5924 5925 5926 5927 5928 5929 5930 5931 5932 5932 5933 5934 5935 5936 5936 5937
5868 5868 5868 5870 5871 5871 5872 5873 5874 5875 5876 5878 5880 5881 5882 5882 5881 5881 5881 5882 5882 5883 5884 5885 5887 5889 5889 5889 5890 5891 5892 5893 5894 5895 5896 5897 5897 5899 5900 5902 5903 5905 5906 5906 5908 5909 5910 5910 5910 5911 5912 5912 5912 5913 5913 5914 5915 5916 5917 5918 5918 5919 5920 5920 5921 5922 5922 5922 5923 5924 5925 5926 5926 5927 5928 5929 5930 5931 5932 5933 5933 5934 5935 5936 5937 5937
5868 5867 5868 5869 5870 5870 5871 5872 5873 5874 5875 5876 5877 5880 5884 5883 5881 5880 5880 5880 5879 5880 5883 5884 5885 5888 5888 5888 5889 5890 5891 5892 5893 5894 5895 5896 5896 5898 5900 5901 5902 5904 5905 5906 5907 5908 5909 5910 5910 5910 5911 5912 5912 5913 5913 5914 5915 5916 5917 5918 5919 5919 5920 5921 5922 5922 5923 5923 5924 5924 5925 5926 5927 5928 5929 5930 5931 5932 5932 5933 5934 5935 5936 5936 5937 5937
5868 5868 5868 5868 5869 5870 5870 5871 5872 5873 5875 5876 5875 5877 5881 5882 5881 5879 5879 5879 5877 5877 5882 5884 5884 5886 5887 5888 5888 5888 5890 5891 5892 5892 5893 5894 5895 5896 5898 5900 5901 5902 5904 5905 5906 5907 5909 5909 5910 5910 5911 5912 5912 5912 5913 5914 5915 5916 5917 5917 5919 5919 5920 5921 5922 5923 5923 5923 5924 5925 5926 5927 5927 5928 5929 5930 5931 5932 5932 5933 5934 5935 5936 5936 5937 5937
5868 5868 5867 5868 5868 5868 5869 5870 5871 5872 5875 5876 5875 5876 5877 5878 5879 5877 5877 5877 5876 5877 5881 5882 5882 5883 5884 5887 5887 5887 5889 5890 5891 5891 5892 5892 5893 5895 5896 5898 5900 5901 5902 5904 5905 5906 5907 5908 5909 5910 5910 5911 5912 5912 5913 5913 5915 5916 5917 5917 5918 5919 5920 5921 5922 5923 5923 5924 5925 5925 5926 5927 5928 5929 5930 5931 5931 5932 5933 5933 5934 5935 5936 5936 5937 5937
5867 5866 5867 5867 5867 5867 5868 5869 5869 5870 5873 5873 5873 5873 5873 5875 5877 5875 5875 5877 5876 5877 5879 5879 5880 5880 5881 5884 5885 5886 5887 5888 5890 5890 5890 5891 5892 5893 5895 5896 5898 5900 5901 5902 5903 5905 5906 5907 5909 5909 5910 5911 5911 5912 5912 5913 5914 5916 5917 5917 5918 5919 5920 5921 5922 5923 5923 5924 5925 5926 5927 5927 5928 5929 5930 5931 5932 5932 5933 5934 5934 5935 5936 5936 5937 5938
5866 5866 5866 5866 5866 5867 5867 5867 5867 5869 5871 5871 5871 5871 5871 5873 5876 5874 5874 5875 5876 5876 5877 5877 5877 5878 5878 5881 5882 5883 5885 5886 5888 5889 5889 5889 5890 5891 5893 5894 5896 5898 5899 5901 5902 5904 5905 5906 5908 5909 5910 5910 5911 5911 5912 5913 5914 5915 5916 5917 5918 5919 5920 5921 5922 5923 5924 5924 5925 5926 5927 5928 5928 5929 5930 5931 5932 5933 5933 5934 5935 5936 5937 5937 5938 5938
5865 5865 5865 5866 5867 5866 5866 5867 5867 5868 5870 5870 5870 5870 5871 5872 5873 5873 5872 5873 5874 5875 5875 5875 5875 5875 5876 5878 5879 5880 5882 5884 5885 5887 5887 5888 5888 5889 5890 5892 5893 5895 5897 5899 5900 5902 5904 5905 5907 5908 5909 5910 5911 5911 5912 5912 5913 5915 5916 5917 5918 5919 5920 5921 5922 5923 5924 5925 5925 5926 5927 5928 5929 5930 5930 5932 5932 5933 5934 5935 5936 5937 5938 5938 5938 5939
5864 5864 5864 5865 5866 5866 5866 5866 5866 5866 5867 5868 5868 5868 5869 5870 5870 5871 5871 5871 5872 5872 5873 5873 5873 5874 5874 5874 5876 5878 5880 5881 5883 5884 5885 5886 5886 5887 5888 5889 5890 5892 5895 5897 5898 5901 5902 5904 5906 5907 5908 5909 5910 5911 5912 5912 5913 5914 5916 5917 5918 5919 5920 5921 5922 5923 5924 5925 5926 5926 5927 5928 5929 5930 5931 5932 5933 5934 5935 5936 5937 5938 5938 5939 5939 5940
5864 5863 5863 5863 5864 5865 5865 5865 5865 5864 5864 5866 5867 5865 5866 5867 5868 5869 5870 5870 5871 5870 5871 5871 5871 5872 5872 5871 5874 5877 5878 5879 5881 5882 5883 5883 5884 5884 5885 5886 5887 5889 5892 5895 5897 5899 5901 5903 5904 5906 5907 5909 5910 5910 5911 5912 5913 5914 5915 5916 5918 5919 5920 5921 5922 5923 5924 5925 5926 5927 5928 5928 5929 5930 5931 5932 5933 5934 5935 5936 5937 5938 5939 5939 5940 5940
5865 5865 5863 5862 5863 5864 5864 5863 5863 5863 5863 5864 5864 5864 5865 5865 5866 5867 5867 5869 5869 5868 5868 5869 5869 5870 5870 5870 5872 5874 5876 5877 5878 5879 5880 5881 5882 5882 5883 5884 5885 5886 5889 5892 5894 5897 5899 5901 5902 5904 5906 5907 5909 5910 5911 5912 5913 5913 5915 5916 5917 5919 5920 5921 5922 5923 5924 5925 5926 5927 5928 5929 5929 5930 5931 5933 5934 5935 5936 5937 5937 5938 5939 5939 5940 5941
5865 5865 5863 5862 5863 5863 5862 5861 5861 5862 5863 5861 5861 5864 5864 5862 5863 5865 5865 5866 5866 5865 5867 5868 5867 5867 5868 5869 5870 5872 5874 5874 5875 5876 5877 5878 5880 5881 5881 5882 5882 5884 5887 5889 5891 5894 5896 5898 5900 5902 5904 5906 5908 5909 5910 5912 5912 5913 5914 5915 5917 5918 5919 5921 5922 5923 5923 5924 5925 5927 5928 5929 5930 5930 5931 5933 5934 5935 5936 5937 5937 5938 5939 5939 5940 5941
5862 5862 5862 5864 5863 5862 5861 5860 5860 5861 5860 5859 5860 5862 5861 5859 5861 5863 5864 5865 5864 5865 5867 5866 5864 5865 5866 5867 5869 5870 5872 5872 5873 5874 5874 5876 5877 5879 5880 5880 5881 5882 5884 5887 5889 5892 5894 5896 5898 5900 5902 5904 5906 5908 5910 5911 5912 5912 5913 5914 5916 5917 5918 5920 5921 5922 5923 5924 5925 5926 5927 5929 5929 5930 5931 5932 5933 5934 5935 5936 5937 5938 5939 5939 5940 5941
5861 5860 5862 5863 5862 5860 5861 5861 5859 5857 5857 5858 5858 5859 5859 5859 5860 5861 5862 5863 5863 5864 5865 5864 5863 5864 5864 5865 5867 5868 5869 5870 5870 5871 5873 5874 5875 5876 5877 5879 5880 5881 5882 5885 5887 5889 5891 5893 5895 5898 5900 5902 5903 5906 5909 5910 5911 5911 5912 5913 5915 5916 5917 5919 5920 5922 5923 5924 5925 5926 5927 5928 5929 5930 5931 5932 5933 5934 5935 5936 5937 5938 5939 5939 5940 5940
5861 5860 5860 5861 5861 5860 5859 5859 5857 5855 5855 5857 5856 5856 5858 5859 5858 5859 5860 5860 5861 5862 5863 5864 5862 5862 5863 5864 5865 5866 5867 5868 5868 5869 5871 5873 5873 5874 5875 5877 5878 5879 5880 5882 5884 5887 5889 5891 5893 5895 5898 5899 5901 5904 5907 5909 5910 5910 5912 5913 5914 5915 5916 5918 5919 5921 5922 5923 5925 5926 5927 5928 5929 5930 5931 5932 5933 5934 5935 5936 5936 5937 5938 5939 5939 5940
5859 5860 5859 5859 5860 5859 5859 5858 5856 5854 5854 5855 5855 5855 5857 5857 5856 5856 5857 5857 5858 5859 5860 5862 5861 5861 5862 5863 5863 5864 5864 5865 5867 5868 5870 5872 5873 5873 5874 5875 5876 5877 5878 5880 5882 5884 5886 5888 5890 5893 5895 5897 5899 5901 5904 5907 5908 5909 5910 5912 5913 5914 5915 5917 5918 5920 5921 5923 5924 5925 5926 5927 5928 5929 5930 5931 5932 5933 5934 5935 5936 5937 5937 5938 5939 5939
5857 5857 5858 5857 5858 5859 5859 5857 5855 5854 5852 5852 5854 5854 5854 5854 5854 5854 5855 5855 5855 5856 5857 5858 5859 5860 5860 5860 5861 5862 5862 5862 5864 5866 5868 5870 5871 5872 5873 5874 5874 5875 5876 5878 5880 5882 5884 5886 5888 5890 5892 5894 5896 5898 5901 5904 5906 5907 5909 5910 5912 5913 5914 5916 5917 5918 5920 5921 5923 5924 5925 5926 5927 5928 5929 5930 5931 5932 5933 5934 5935 5935 5936 5937 5938 5938
5854 5855 5855 5855 5856 5857 5856 5854 5853 5853 5851 5851 5852 5852 5852 5852 5852 5852 5852 5853 5853 5854 5854 5855 5856 5857 5858 5858 5859 5859 5859 5860 5862 5864 5865 5866 5868 5869 5871 5872 5873 5874 5874 5876 5877 5879 5881 5884 5886 5888 5890 5891 5893 5896 5898 5901 5904 5906 5907 5909 5910 5911 5913 5914 5915 5917 5918 5920 5921 5922 5923 5925 5926 5927 5928 5929 5930 5931 5932 5932 5933 5934 5935 5936 5937 5937
5853 5852 5853 5853 5853 5852 5852 5852 5851 5849 5849 5850 5850 5851 5850 5849 5850 5850 5850 5851 5852 5852 5853 5853 5853 5854 5855 5856 5857 5857 5857 5858 5859 5861 5862 5863 5865 5866 5868 5869 5871 5872 5872 5872 5874 5877 5879 5881 5884 5886 5888 5889 5891 5893 5895 5898 5901 5904 5905 5907 5908 5910 5912 5913 5914 5915 5916 5918 5920 5921 5922 5923 5925 5926 5927 5928 5929 5930 5931 5931 5932 5933 5934 5935 5935 5936
5851 5849 5849 5850 5850 5850 5851 5852 5850 5847 5848 5849 5849 5850 5849 5847 5848 5848 5849 5850 5850 5850 5851 5851 5851 5852 5854 5855 5856 5856 5855 5856 5857 5858 5858 5860 5862 5864 5865 5867 5868 5870 5871 5870 5871 5874 5877 5879 5882 5884 5885 5887 5888 5890 5892 5895 5898 5901 5903 5905 5907 5908 5910 5911 5913 5914 5915 5917 5918 5920 5921 5922 5923 5925 5926 5927 5928 5929 5930 5931 5931 5932 5932 5933 5934 5935
5849 5847 5847 5847 5848 5849 5850 5851 5850 5845 5845 5848 5848 5848 5847 5846 5846 5846 5847 5848 5848 5848 5848 5849 5850 5851 5852 5853 5854 5853 5854 5856 5856 5856 5856 5857 5859 5861 5862 5863 5866 5868 5869 5869 5870 5871 5874 5877 5879 5881 5883 5885 5886 5888 5890 5892 5895 5898 5900 5902 5904 5905 5907 5909 5911 5912 5914 5915 5916 5918 5919 5921 5922 5923 5924 5926 5927 5928 5929 5929 5930 5931 5931 5932 5933 5933
5845 5844 5845 5846 5846 5847 5847 5848 5847 5844 5845 5846 5846 5846 5845 5845 5845 5844 5845 5846 5846 5846 5846 5847 5848 5849 5850 5851 5851 5852 5853 5854 5855 5854 5854 5856 5857 5858 5858 5859 5862 5864 5865 5867 5868 5869 5871 5874 5877 5879 5881 5882 5884 5886 5888 5889 5892 5894 5897 5900 5902 5903 5905 5907 5909 5910 5912 5913 5915 5916 5918 5919 5920 5922 5923 5924 5925 5926 5927 5928 5928 5929 5930 5931 5931 5932
5842 5842 5843 5843 5844 5845 5845 5845 5845 5844 5845 5846 5845 5844 5843 5842 5842 5843 5844 5844 5844 5844 5844 5844 5845 5846 5847 5849 5850 5851 5851 5851 5852 5852 5852 5853 5855 5856 5856 5856 5858 5860 5862 5864 5865 5867 5869 5872 5874 5876 5878 5880 5881 5883 5885 5887 5888 5891 5894 5897 5899 5901 5902 5904 5907 5908 5909 5911 5913 5914 5916 5917 5918 5920 5921 5922 5923 5924 5925 5926 5927 5927 5928 5929 5929 5930
5840 5840 5840 5840 5841 5842 5842 5843 5843 5844 5844 5844 5844 5843 5843 5841 5840 5841 5842 5842 5842 5842 5842 5842 5843 5844 5846 5848 5848 5848 5849 5849 5849 5849 5849 5850 5851 5853 5855 5855 5855 5856 5858 5860 5862 5864 5866 5868 5870 5872 5875 5877 5879 5881 5883 5885 5886 5888 5891 5893 5896 5898 5900 5902 5904 5906 5907 5909 5911 5912 5913 5915 5916 5918 5919 5920 5921 5922 5923 5924 5924 5925 5925 5926 5927 5928
5837 5838 5837 5837 5837 5838 5838 5839 5840 5840 5841 5841 5842 5842 5842 5841 5839 5838 5839 5839 5839 5840 5840 5839 5841 5842 5844 5845 5846 5845 5845 5846 5846 5846 5847 5848 5849 5850 5852 5853 5854 5854 5854 5855 5857 5859 5861 5864 5866 5868 5871 5874 5876 5878 5880 5883 5885 5886 5887 5890 5893 5895 5897 5899 5902 5904 5905 5907 5908 5910 5911 5912 5914 5916 5917 5918 5919 5919 5920 5921 5921 5922 5922 5923 5924 5926
5835 5835 5834 5834 5834 5834 5835 5836 5837 5837 5838 5839 5839 5840 5840 5839 5837 5836 5836 5836 5836 5838 5837 5837 5838 5840 5841 5841 5842 5842 5842 5844 5845 5845 5845 5846 5848 5848 5848 5849 5851 5851 5851 5851 5852 5853 5855 5859 5862 5864 5866 5870 5873 5875 5877 5880 5883 5884 5886 5888 5890 5892 5894 5897 5899 5901 5903 5905 5906 5908 5909 5911 5912 5914 5915 5916 5916 5917 5917 5918 5919 5920 5920 5921 5921 5923
5832 5831 5831 5831 5832 5832 5832 5834 5835 5837 5837 5837 5837 5838 5837 5836 5835 5834 5834 5834 5834 5834 5835 5835 5836 5838 5838 5838 5839 5839 5840 5842 5843 5843 5844 5844 5845 5846 5846 5845 5846 5848 5849 5849 5850 5851 5853 5855 5857 5859 5862 5865 5869 5871 5874 5876 5880 5882 5884 5886 5889 5891 5893 5894 5897 5899 5901 5903 5904 5905 5907 5909 5910 5911 5913 5914 5914 5915 5915 5916 5917 5918 5918 5919 5919 5921
5829 5829 5828 5828 5828 5829 5829 5830 5832 5833 5833 5834 5834 5835 5835 5834 5833 5833 5832 5831 5831 5831 5832 5833 5833 5835 5836 5835 5836 5837 5839 5840 5840 5840 5841 5842 5843 5844 5844 5844 5845 5846 5847 5847 5849 5850 5851 5853 5854 5856 5858 5861 5864 5867 5870 5872 5875 5878 5881 5884 5887 5890 5892 5893 5895 5897 5898 5899 5900 5902 5904 5905 5907 5908 5910 5911 5912 5912 5913 5914 5915 5915 5916 5916 5917 5919
5825 5826 5826 5825 5825 5826 5826 5827 5827 5827 5828 5831 5831 5831 5833 5834 5833 5832 5830 5829 5829 5829 5829 5830 5831 5832 5832 5833 5834 5835 5836 5837 5838 5839 5840 5840 5841 5842 5843 5844 5845 5845 5844 5844 5846 5848 5849 5850 5852 5853 5855 5857 5860 5864 5867 5869 5871 5874 5876 5879 5882 5885 5886 5889 5892 5894 5895 5895 5897 5899 5902 5904 5905 5906 5906 5908 5909 5910 5910 5911 5911 5911 5912 5912 5914 5916
5823 5822 5823 5823 5823 5823 5824 5824 5823 5824 5826 5828 5828 5828 5831 5831 5830 5830 5829 5828 5827 5826 5826 5827 5828 5829 5831 5831 5831 5832 5833 5835 5836 5837 5838 5839 5840 5841 5842 5843 5844 5844 5843 5843 5844 5845 5846 5847 5849 5851 5853 5855 5858 5861 5863 5865 5868 5870 5872 5875 5877 5879 5880 5883 5886 5888 5890 5892 5894 5896 5899 5904 5906 5906 5905 5905 5906 5906 5906 5907 5907 5907 5908 5909 5911 5914
5822 5821 5821 5820 5820 5821 5822 5821 5821 5823 5825 5825 5825 5825 5826 5826 5825 5826 5827 5826 5825 5824 5825 5826 5826 5826 5828 5829 5828 5828 5830 5832 5834 5835 5836 5837 5838 5839 5840 5841 5842 5842 5843 5843 5843 5844 5845 5845 5846 5848 5851 5853 5855 5857 5860 5862 5864 5866 5868 5870 5873 5874 5875 5878 5881 5883 5885 5889 5891 5893 5896 5899 5902 5902 5902 5901 5902 5902 5903 5904 5904 5905 5905 5907 5908 5910
5820 5819 5818 5817 5817 5818 5819 5819 5820 5821 5822 5822 5822 5821 5820 5820 5822 5824 5824 5824 5825 5824 5823 5824 5824 5823 5824 5825 5824 5825 5827 5829 5832 5832 5833 5835 5837 5837 5838 5839 5839 5840 5841 5842 5842 5843 5843 5844 5845 5846 5848 5850 5852 5854 5856 5858 5860 5862 5863 5866 5868 5870 5872 5875 5876 5878 5881 5884 5887 5890 5892 5893 5895 5896 5897 5898 5898 5898 5900 5901 5901 5902 5902 5903 5904 5904
5817 5816 5816 5816 5816 5816 5816 5816 5817 5818 5819 5820 5820 5818 5816 5816 5818 5821 5822 5821 5822 5821 5821 5821 5822 5821 5821 5821 5822 5822 5823 5826 5829 5830 5830 5832 5834 5835 5836 5837 5837 5837 5839 5840 5840 5841 5841 5842 5843 5844 5846 5848 5849 5851 5853 5854 5856 5857 5858 5860 5862 5865 5869 5871 5871 5873 5876 5880 5883 5885 5885 5886 5889 5892 5893 5894 5895 5895 5896 5897 5898 5898 5899 5899 5900 5900
5815 5814 5814 5814 5813 5813 5813 5814 5814 5815 5816 5817 5817 5816 5815 5814 5816 5819 5818 5816 5818 5819 5818 5819 5820 5819 5819 5819 5820 5820 5821 5822 5825 5826 5826 5828 5831 5832 5834 5835 5836 5836 5837 5837 5838 5838 5839 5840 5841 5843 5845 5846 5846 5847 5848 5849 5850 5851 5853 5855 5857 5860 5863 5866 5867 5870 5874 5878 5880 5880 5880 5881 5884 5887 5889 5890 5891 5891 5893 5894 5895 5896 5897 5896 5896 5897
5813 5811 5810 5811 5810 5810 5811 5811 5812 5813 5813 5813 5813 5812 5811 5813 5816 5817 5814 5813 5815 5816 5816 5817 5818 5817 5817 5817 5817 5818 5819 5820 5821 5822 5823 5825 5827 5829 5831 5833 5834 5835 5835 5836 5835 5836 5837 5837 5838 5841 5843 5843 5840 5839 5841 5842 5844 5846 5847 5849 5851 5854 5858 5860 5863 5867 5871 5873 5874 5874 5875 5877 5879 5881 5884 5886 5887 5888 5889 5891 5892 5893 5894 5893 5893 5894
5810 5808 5806 5807 5808 5808 5809 5809 5810 5811 5810 5810 5810 5808 5809 5812 5814 5813 5812 5812 5812 5812 5814 5816 5816 5815 5815 5814 5814 5814 5815 5816 5817 5819 5821 5823 5825 5827 5828 5829 5831 5833 5833 5834 5834 5834 5834 5835 5836 5839 5840 5839 5836 5835 5836 5839 5840 5842 5843 5844 5845 5849 5852 5856 5860 5864 5865 5866 5868 5870 5872 5874 5874 5877 5880 5882 5883 5884 5886 5887 5888 5889 5889 5889 5889 5890
5805 5804 5803 5804 5805 5806 5807 5807 5808 5808 5806 5807 5807 5806 5807 5809 5810 5810 5810 5810 5809 5810 5812 5814 5813 5813 5812 5812 5811 5811 5811 5812 5814 5815 5818 5821 5823 5824 5825 5826 5827 5829 5830 5831 5831 5832 5832 5832 5833 5835 5837 5837 5836 5835 5835 5836 5838 5839 5840 5840 5841 5844 5847 5851 5855 5859 5860 5861 5864 5868 5870 5871 5872 5875 5877 5878 5880 5881 5882 5883 5884 5884 5884 5885 5886 5887
5802 5801 5802 5803 5804 5804 5804 5804 5805 5804 5803 5803 5804 5804 5805 5806 5806 5807 5808 5807 5806 5809 5811 5811 5811 5810 5810 5809 5809 5809 5808 5809 5810 5812 5814 5817 5819 5821 5823 5824 5825 5826 5828 5828 5828 5829 5829 5829 5830 5831 5833 5834 5835 5834 5833 5834 5835 5836 5837 5837 5838 5841 5843 5845 5849 5853 5855 5857 5861 5864 5865 5866 5869 5872 5873 5874 5876 5877 5878 5879 5879 5879 5880 5881 5883 5883
5798 5799 5799 5801 5801 5802 5802 5802 5802 5801 5799 5800 5801 5801 5802 5803 5803 5804 5804 5804 5806 5808 5809 5809 5809 5809 5808 5808 5807 5807 5807 5807 5808 5809 5811 5813 5815 5817 5820 5822 5823 5824 5826 5826 5826 5826 5827 5828 5829 5829 5829 5830 5831 5831 5831 5832 5833 5833 5834 5834 5835 5837 5839 5841 5844 5847 5850 5852 5856 5858 5859 5860 5863 5867 5868 5870 5871 5873 5874 5874 5874 5874 5876 5877 5878 5877
5794 5796 5796 5797 5798 5799 5799 5799 5799 5798 5797 5797 5798 5799 5800 5801 5802 5802 5801 5802 5805 5808 5808 5807 5807 5806 5806 5806 5805 5805 5805 5805 5806 5807 5808 5809 5811 5813 5816 5818 5820 5822 5824 5824 5824 5825 5826 5826 5827 5827 5827 5827 5829 5829 5830 5831 5830 5830 5831 5831 5832 5834 5836 5838 5841 5843 5846 5848 5851 5852 5854 5856 5859 5861 5863 5866 5867 5868 5869 5870 5870 5871 5872 5873 5873 5872
5791 5792 5793 5795 5795 5796 5797 5796 5796 5796 5796 5795 5795 5796 5798 5799 5799 5800 5799 5799 5802 5806 5805 5804 5804 5804 5804 5804 5803 5803 5803 5804 5805 5805 5806 5807 5809 5811 5813 5815 5817 5819 5820 5821 5822 5823 5824 5825 5825 5824 5824 5825 5827 5828 5829 5829 5827 5827 5827 5828 5829 5832 5834 5835 5838 5840 5842 5845 5848 5849 5851 5853 5854 5857 5859 5861 5862 5863 5864 5866 5866 5867 5868 5869 5869 5868
5787 5788 5790 5791 5792 5793 5794 5794 5794 5794 5793 5792 5793 5794 5795 5796 5797 5797 5796 5796 5800 5803 5803 5801 5801 5801 5801 5801 5801 5801 5801 5802 5803 5803 5803 5805 5806 5808 5810 5812 5814 5815 5816 5818 5819 5820 5821 5822 5823 5822 5822 5823 5825 5826 5826 5827 5826 5826 5826 5827 5827 5829 5830 5832 5834 5836 5839 5842 5844 5845 5846 5848 5850 5852 5854 5856 5856 5858 5859 5861 5862 5862 5863 5864 5864 5864
5784 5785 5787 5788 5789 5790 5791 5791 5790 5790 5790 5790 5791 5792 5793 5794 5795 5794 5793 5794 5797 5800 5800 5798 5798 5799 5799 5799 5799 5799 5799 5800 5801 5801 5802 5802 5804 5806 5807 5809 5811 5812 5813 5815 5817 5818 5819 5820 5820 5820 5821 5821 5822 5823 5824 5825 5825 5825 5826 5826 5825 5826 5828 5829 5831 5834 5836 5838 5840 5841 5842 5844 5845 5847 5849 5850 5852 5852 5853 5855 5856 5857 5858 5859 5860 5860
5781 5782 5783 5784 5785 5787 5788 5788 5787 5787 5787 5788 5789 5789 5790 5791 5792 5792 5791 5791 5793 5795 5796 5795 5795 5796 5797 5797 5797 5797 5797 5798 5799 5799 5800 5800 5802 5803 5804 5806 5808 5809 5810 5812 5814 5815 5817 5817 5818 5819 5819 5820 5820 5822 5822 5822 5824 5824 5824 5825 5825 5824 5825 5826 5828 5830 5832 5834 5836 5837 5838 5840 5841 5842 5843 5845 5846 5847 5848 5849 5851 5852 5853 5854 5855 5856
5778 5779 5779 5780 5782 5783 5784 5785 5784 5784 5785 5786 5786 5787 5786 5787 5788 5789 5789 5789 5789 5790 5791 5792 5792 5793 5794 5795 5795 5795 5796 5796 5796 5797 5798 5799 5799 5800 5801 5803 5804 5806 5807 5809 5810 5812 5814 5815 5816 5817 5817 5817 5819 5820 5819 5820 5822 5823 5823 5823 5824 5824 5824 5825 5826 5827 5829 5831 5833 5834 5836 5837 5838 5839 5840 5841 5842 5843 5844 5845 5846 5847 5849 5850 5851 5852
5776 5777 5776 5777 5778 5778 5779 5781 5781 5781 5783 5785 5785 5785 5784 5784 5785 5786 5786 5786 5786 5786 5787 5789 5789 5790 5791 5793 5793 5793 5793 5794 5794 5794 5795 5796 5797 5798 5799 5800 5801 5803 5805 5806 5808 5810 5812 5814 5815 5815 5815 5815 5817 5818 5818 5820 5821 5822 5822 5823 5823 5823 5824 5825 5825 5826 5828 5830 5831 5833 5834 5835 5836 5837 5838 5839 5839 5840 5841 5843 5844 5845 5846 5847 5848 5848
5773 5773 5773 5775 5775 5774 5776 5779 5779 5779 5780 5782 5782 5782 5781 5782 5783 5783 5783 5783 5783 5783 5784 5785 5786 5786 5787 5789 5790 5790 5791 5790 5790 5791 5792 5793 5794 5795 5796 5797 5799 5800 5802 5804 5805 5807 5809 5811 5812 5814 5814 5815 5815 5816 5818 5820 5820 5821 5822 5823 5822 5822 5823 5824 5825 5826 5827 5828 5830 5831 5832 5833 5834 5835 5836 5837 5838 5839 5839 5840 5841 5842 5843 5844 5845 5846